Station CRYV2 - 8638595 - South Craney Island, VA Image indicating link to RSS feed of recent meteorological observations for station CRYV2


Conditions at CRYV2 as of
(4:30 am EDT)
0830 GMT on 06/14/2024:
     

Click on the graph icon in the table below to see a time series plot of the last five days of that observation.

5-day plot - Wind Direction Wind Direction (WDIR):SSW ( 210 deg true )
5-day plot - Wind Speed Wind Speed (WSPD): 4.1 kts
5-day plot - Wind Gust Wind Gust (GST): 5.1 kts
5-day plot - Atmospheric Pressure Atmospheric Pressure (PRES):29.96 in
5-day plot - Air Temperature Air Temperature (ATMP): 71.8 °F
5-day plot - Wind Speed at 10 Meters Wind Speed at 10 meters (WSPD10M): 3.9 kts
5-day plot - Wind Speed at 20 Meters Wind Speed at 20 meters (WSPD20M): 3.9 kts
5-day plot -  Wind Speed, Wind Gust and Atmospheric Pressure Combined plot of Wind Speed, Gust, and Air Pressure
NOS Water Level Observation Network Water Level
Previous observations
TIME
(EDT)
5-day plot - Wind Direction
WDIR
 
5-day plot - Wind Speed
WSPD
kts
5-day plot - Wind Gust
GST
kts
5-day plot - Wave Height
WVHT
ft
5-day plot - Dominant Wave Period
DPD
sec
5-day plot - Average Wave Period
APD
sec
5-day plot - Mean Wave Direction
MWD
 
5-day plot - Atmospheric Pressure
PRES
in
5-day plot - Pressure Tendency
PTDY
in
5-day plot - Air Temperature
ATMP
°F
5-day plot - Water Temperature
WTMP
°F
5-day plot - Dew Point
DEWP
°F
5-day plot - Salinity
SAL
psu
5-day plot - Visibility
VIS
nmi
5-day plot - Tide (above MLLW)
TIDE
ft
2024-06-14 04:24 amSSW 5.1 6.0----29.96- 72.0-----
2024-06-14 04:18 amSSW 4.1 6.0----29.96- 72.1-----
2024-06-14 04:12 amSSW 4.1 7.0----29.96- 72.1-----
2024-06-14 04:06 amSSW 6.0 7.0----29.96- 72.0-----
2024-06-14 04:00 amSSW 5.1 6.0----29.96-0.03 72.1-----
2024-06-14 03:54 amSSW 5.1 6.0----29.96- 72.5-----
2024-06-14 03:48 am S 4.1 8.0----29.96- 72.7-----
2024-06-14 03:42 am S 6.0 8.9----29.96- 72.9-----
2024-06-14 03:36 am S 7.0 8.0----29.96- 72.7-----
2024-06-14 03:30 am S 5.1 8.0----29.96- 72.7-----
2024-06-14 03:24 am S 6.0 8.9----29.96- 72.7-----
2024-06-14 03:18 am S 8.0 9.9----29.96- 72.7-----
2024-06-14 03:12 am S 8.9 9.9----29.96- 72.7-----
2024-06-14 03:06 am S 8.0 8.9----29.96- 72.7-----
2024-06-14 03:00 am S 7.0 9.9----29.96-0.04 72.7-----
2024-06-14 02:54 am S 7.0 8.9----29.96- 72.9-----
2024-06-14 02:48 am S 8.0 9.9----29.96- 72.9-----
2024-06-14 02:42 am S 7.0 8.9----29.96- 72.9-----
2024-06-14 02:36 am S 6.0 8.9----29.97- 73.0-----
2024-06-14 02:30 am S 6.0 8.0----29.97- 73.0-----
2024-06-14 02:24 am S 5.1 7.0----29.97- 73.0-----
2024-06-14 02:18 am S 6.0 8.9----29.97- 73.2-----
2024-06-14 02:12 am S 6.0 8.0----29.97- 73.2-----
2024-06-14 02:06 am S 6.0 9.9----29.97- 73.2-----
2024-06-14 02:00 am S 7.0 9.9----29.97-0.03 73.2-----
2024-06-14 01:54 am S 8.0 9.9----29.97- 73.4-----
2024-06-14 01:48 am S 6.0 9.9----29.97- 73.8-----
2024-06-14 01:42 am S 8.0 9.9----29.97- 73.9-----
2024-06-14 01:36 am S 7.0 9.9----29.97- 73.9-----
2024-06-14 01:30 am S 7.0 11.1----29.98- 74.3-----
2024-06-14 01:24 am S 8.0 12.0----29.98- 74.1-----
2024-06-14 01:18 am S 9.9 11.1----29.98-------
2024-06-14 01:12 am S 8.9 11.1----29.98-------
2024-06-14 01:06 am S 8.0 9.9----29.98-------
2024-06-14 01:00 am S 8.0 9.9----29.99-0.01 74.5-----
2024-06-14 12:54 am S 7.0 11.1----29.99- 74.7-----
2024-06-14 12:48 am S 8.9 9.9----29.99- 74.7-----
2024-06-14 12:42 am S 8.9 12.0----29.99- 74.8-----
2024-06-14 12:36 am S 9.9 11.1----29.99- 74.8-----
2024-06-14 12:30 am S 9.9 11.1----29.99- 74.8-----
2024-06-14 12:24 am S 9.9 11.1----29.99- 75.0-----
2024-06-14 12:18 am S 8.0 9.9----29.99- 75.0-----
2024-06-14 12:12 am S 8.0 9.9----30.00- 75.2-----
2024-06-14 12:06 am S 7.0 8.9----30.00- 75.4-----
2024-06-14 12:00 am S 7.0 9.9----29.99+0.00 75.6-----
2024-06-13 11:54 pm S 6.0 8.0----30.00- 75.6-----
2024-06-13 11:48 pm S 7.0 8.9----30.00- 75.7-----
2024-06-13 11:42 pm S 5.1 7.0----30.00- 75.9-----
2024-06-13 11:36 pm S 5.1 7.0----30.01- 76.1-----
2024-06-13 11:30 pm S 6.0 8.9----30.00- 76.1-----
2024-06-13 11:24 pm S 8.0 9.9----30.00- 76.1-----
2024-06-13 11:18 pm S 8.0 9.9----30.00- 76.1-----
2024-06-13 11:12 pm S 8.9 11.1----30.00- 76.1-----
2024-06-13 11:06 pm S 8.9 11.1----30.00- 76.5-----
2024-06-13 11:00 pm S 8.9 12.0----30.00+0.00 76.5-----
2024-06-13 10:54 pm S 9.9 13.0----30.00- 76.5-----
2024-06-13 10:48 pm S 11.1 12.0----30.00- 76.6-----
2024-06-13 10:42 pm S 11.1 12.0----30.00- 76.8-----
2024-06-13 10:36 pm S 11.1 12.0----30.00- 76.6-----
2024-06-13 10:30 pm S 11.1 12.0----30.00- 76.8-----
2024-06-13 10:24 pm S 9.9 12.0----30.00- 77.0-----
2024-06-13 10:18 pm S 11.1 12.0----30.00- 77.0-----
2024-06-13 10:12 pm S 11.1 12.0----30.00- 77.2-----
2024-06-13 10:06 pm S 11.1 12.0----30.00- 77.2-----
2024-06-13 10:00 pm S 11.1 12.0----30.00+0.01 77.4-----
2024-06-13 09:54 pm S 8.9 12.0----30.00- 77.4-----
2024-06-13 09:48 pm S 9.9 11.1----30.00- 77.4-----
2024-06-13 09:42 pm S 9.9 11.1----30.00- 77.5-----
2024-06-13 09:36 pm S 9.9 12.0----30.00- 77.7-----
2024-06-13 09:30 pmSSE 11.1 13.0----30.00- 77.7-----
2024-06-13 09:24 pmSSE 11.1 13.0----29.99- 77.7-----
2024-06-13 09:18 pmSSE 11.1 12.0----29.99- 77.9-----
2024-06-13 09:12 pmSSE 9.9 13.0----29.99- 78.1-----
2024-06-13 09:06 pmSSE 11.1 13.0----29.99- 78.3-----
2024-06-13 09:00 pmSSE 9.9 12.0----29.99+0.01 78.3-----
2024-06-13 08:54 pmSSE 9.9 12.0----29.99- 78.4-----
2024-06-13 08:48 pm S 8.9 11.1----30.00- 78.8-----
2024-06-13 08:42 pm S 11.1 13.0----29.99- 79.2-----
2024-06-13 08:36 pm S 11.1 14.0----30.00- 79.3-----
2024-06-13 08:30 pm S 11.1 13.0----30.00- 79.5-----
2024-06-13 08:24 pm S 11.1 13.0----30.00- 79.7-----
2024-06-13 08:18 pmSSE 11.1 13.0----30.00- 79.7-----
2024-06-13 08:12 pmSSE 12.0 13.0----30.00- 79.5-----
2024-06-13 08:06 pm S 9.9 12.0----30.00- 80.1-----
2024-06-13 08:00 pm S 11.1 13.0----30.00+0.00 80.2-----
2024-06-13 07:54 pm S 11.1 14.0----30.00- 80.2-----
2024-06-13 07:48 pm S 12.0 13.0----30.00- 80.8-----
2024-06-13 07:42 pm S 12.0 14.0----30.00- 81.0-----
2024-06-13 07:36 pm S 12.0 13.0----30.00- 81.3-----
2024-06-13 07:30 pmSSE 9.9 13.0----30.00- 81.0-----
2024-06-13 07:24 pmSSE 11.1 13.0----30.00- 81.0-----
2024-06-13 07:00 pm S 7.0 9.9----29.99-0.01------
2024-06-13 06:54 pm S 8.9 12.0----29.99-------
2024-06-13 06:48 pm S 8.0 11.1----29.99-------
2024-06-13 06:42 pm S 8.0 12.0----29.99-------
2024-06-13 06:36 pm S 7.0 12.0----29.99-------
2024-06-13 06:30 pm S 11.1 13.0----29.99- 83.1-----
2024-06-13 06:24 pm S 8.9 11.1----29.99- 83.7-----
2024-06-13 06:18 pm S 8.0 12.0----29.99- 83.5-----
2024-06-13 06:12 pm S 8.0 12.0----29.99- 83.3-----
2024-06-13 06:06 pm S 8.0 13.0----29.99- 83.8-----
2024-06-13 06:00 pm S 12.0 14.0----29.98-0.04------
2024-06-13 05:54 pm S 9.9 13.0----29.98-------
2024-06-13 05:48 pm S 8.0 13.0----29.99- 84.0-----
2024-06-13 05:42 pm S 11.1 12.0----29.99- 83.3-----
2024-06-13 05:36 pm S 11.1 13.0----29.99- 82.9-----
2024-06-13 05:30 pm S 8.9 14.0----29.99- 83.3-----
2024-06-13 05:24 pm S 11.1 15.0----29.98- 83.3-----
2024-06-13 05:18 pm S 11.1 15.0----29.99-------
2024-06-13 05:12 pm S 8.9 14.0----29.99-------
2024-06-13 05:06 pm S 9.9 15.0----29.99-------
2024-06-13 05:00 pm S 9.9 15.9----29.99-0.04 82.9-----
2024-06-13 04:54 pm S 9.9 14.0----29.99- 82.9-----
2024-06-13 04:48 pm S 8.0 15.0----29.99- 83.5-----
2024-06-13 04:42 pm S 14.0 17.1----30.00- 83.1-----
2024-06-13 04:36 pm S 8.9 13.0----30.00- 82.8-----
2024-06-13 04:30 pm S 11.1 14.0----30.00- 83.3-----
2024-06-13 04:24 pm S 8.9 14.0----30.00- 82.9-----
2024-06-13 04:18 pm S 8.9 13.0----30.00-------
2024-06-13 04:12 pm S 8.9 12.0----30.00-------
2024-06-13 04:06 pm S 11.1 14.0----30.01-------
2024-06-13 04:00 pm S 9.9 12.0----30.01-0.03 82.9-----
2024-06-13 03:54 pm S 8.0 12.0----30.01- 83.1-----
2024-06-13 03:48 pmSSW 8.9 12.0----30.01- 82.9-----
2024-06-13 03:42 pmSSW 8.9 11.1----30.01- 83.1-----
2024-06-13 03:36 pmSSW 9.9 14.0----30.01- 83.1-----
2024-06-13 03:30 pm S 8.9 11.1----30.01-------
2024-06-13 03:24 pm S 8.0 12.0----30.01-------
2024-06-13 03:18 pm S 9.9 12.0----30.02- 81.9-----
2024-06-13 03:12 pm S 8.0 11.1----30.02- 82.0-----
2024-06-13 03:06 pm S 8.9 13.0----30.02- 82.0-----
2024-06-13 03:00 pm S 9.9 13.0----30.02- 81.9-----
2024-06-13 02:54 pmSSE 11.1 13.0----30.02- 81.1-----
2024-06-13 02:48 pmSSE 12.0 14.0----30.02-------
2024-06-13 02:42 pmSSE 11.1 14.0----30.02-------
2024-06-13 02:36 pmSSE 9.9 13.0----30.02-------
2024-06-13 02:30 pm SE 9.9 13.0----30.03-------
2024-06-13 02:24 pmSSE 11.1 15.0----30.03-------
2024-06-13 02:18 pmSSE 5.1 7.0----30.03- 82.0-----
2024-06-13 02:12 pmSSE 1.9 4.1----30.03- 82.9-----
2024-06-13 02:06 pm S 5.1 7.0----30.03- 82.9-----
2024-06-13 02:00 pmSSW 1.9 4.1----30.03-0.02------
2024-06-13 01:54 pm SE 1.9 2.9----30.03-------
2024-06-13 01:48 pm- 0.0 2.9----30.03-------
2024-06-13 01:42 pm NW 1.9 4.1----30.03-------
2024-06-13 01:36 pmSSW 4.1 5.1----30.03-------
2024-06-13 01:30 pm--------- 82.9-----
2024-06-13 01:24 pm--------- 82.9-----
2024-06-13 01:18 pm S 2.9 4.1----30.03- 83.1-----
2024-06-13 01:12 pmSSE 1.9 2.9----30.03- 83.3-----
2024-06-13 01:06 pmSSE 4.1 6.0----30.03- 82.4-----
2024-06-13 01:00 pm-------30.03-0.02 82.8-----
2024-06-13 12:54 pm-------30.03- 82.2-----
2024-06-13 12:48 pmSSW 6.0 7.0----30.03- 82.8-----
2024-06-13 12:42 pmSSE 2.9 4.1----30.04- 82.8-----
2024-06-13 12:36 pm S 2.9 5.1----30.04- 82.8-----
2024-06-13 12:30 pm-------30.04- 83.8-----
2024-06-13 12:24 pm-------30.04- 83.7-----
2024-06-13 12:18 pmSSE 2.9 5.1----30.04-------
2024-06-13 12:12 pm S 2.9 4.1----30.04-------
2024-06-13 12:06 pm S 2.9 6.0----30.05-------
2024-06-13 12:00 pm S 5.1 6.0------ 82.4-----
2024-06-13 11:54 amSSW 4.1 6.0------ 82.2-----
2024-06-13 11:48 am S 4.1 5.1----30.05-------
2024-06-13 11:42 am S 4.1 5.1----30.05-------
2024-06-13 11:36 amSSE 2.9 4.1----30.05-------
2024-06-13 11:30 amSSW 4.1 5.1----30.05-------
2024-06-13 11:24 am S 4.1 5.1----30.05-------
2024-06-13 11:18 am S 4.1 5.1----30.05- 82.2-----
2024-06-13 11:12 am S 2.9 6.0----30.05- 82.0-----
2024-06-13 11:06 am S 2.9 5.1----30.05- 81.3-----
2024-06-13 11:00 amSSW 4.1 5.1----30.05-0.01 80.4-----
2024-06-13 10:54 am SW 2.9 6.0----30.05- 80.8-----
2024-06-13 10:48 am S 2.9 5.1----30.05- 81.3-----
2024-06-13 10:42 am S 1.9 6.0----30.05- 80.6-----
2024-06-13 10:36 amSSW 4.1 6.0----30.05- 79.9-----
2024-06-13 10:30 am S 4.1 5.1----30.05-------
2024-06-13 10:24 am S 4.1 6.0----30.05-------
2024-06-13 10:18 amSSW 5.1 6.0----30.05- 78.6-----
2024-06-13 10:12 amSSW 5.1 6.0----30.05- 78.3-----
2024-06-13 10:06 am S 4.1 7.0----30.05- 78.6-----
2024-06-13 10:00 am S 4.1 7.0----30.05+0.00 78.4-----
2024-06-13 09:54 am S 5.1 7.0----30.06- 78.3-----
2024-06-13 09:48 am S 5.1 8.0----30.06- 78.8-----
2024-06-13 09:42 am S 4.1 8.0----30.06- 78.4-----
2024-06-13 09:36 am S 5.1 7.0----30.06- 78.1-----
2024-06-13 09:30 am S 5.1 8.9----30.06- 77.7-----
2024-06-13 09:24 am S 6.0 9.9----30.06- 77.5-----
2024-06-13 09:18 am S 7.0 8.9----30.06- 77.5-----
2024-06-13 09:12 am S 8.9 11.1----30.06- 77.2-----
2024-06-13 09:06 am S 8.9 11.1----30.06- 77.0-----
2024-06-13 09:00 am S 7.0 8.0----30.06+0.03 76.8-----
2024-06-13 08:54 am S 8.0 8.9----30.06- 76.5-----
2024-06-13 08:48 am S 7.0 8.9----30.06- 76.3-----
2024-06-13 08:42 am S 7.0 8.0----30.06- 75.9-----
2024-06-13 08:36 am S 8.0 8.9----30.06- 75.4-----
2024-06-13 08:30 am S 8.0 9.9----30.06- 75.0-----
2024-06-13 08:24 am S 8.0 8.9----30.06- 74.5-----
2024-06-13 08:18 amSSE 6.0 8.9----30.06- 74.3-----
2024-06-13 08:12 amSSE 8.0 9.9----30.06- 74.3-----
2024-06-13 08:06 amSSE 8.0 8.9----30.06- 74.1-----
2024-06-13 08:00 amSSE 8.0 8.9----30.06+0.05 73.6-----
2024-06-13 07:54 amSSE 7.0 8.0----30.06- 73.2-----
2024-06-13 07:48 amSSE 5.1 7.0----30.06-------
2024-06-13 07:42 amSSE 5.1 6.0----30.06-------
2024-06-13 07:36 amSSE 5.1 7.0----30.06-------
2024-06-13 07:30 amSSE 5.1 7.0----30.06- 72.7-----
2024-06-13 07:24 amSSE 6.0 7.0----30.06- 72.5-----
2024-06-13 07:18 amSSE 6.0 7.0----30.06- 72.3-----
2024-06-13 07:12 am S 6.0 7.0----30.06- 72.1-----
2024-06-13 07:06 amSSE 5.1 7.0----30.06- 72.3-----
2024-06-13 07:00 amSSE 5.1 7.0----30.05+0.05 72.3-----
2024-06-13 06:54 amSSE 5.1 7.0----30.05- 72.5-----
2024-06-13 06:48 amSSE 5.1 8.0----30.05- 72.7-----
2024-06-13 06:42 amSSE 5.1 7.0----30.05- 72.9-----
2024-06-13 06:36 amSSE 5.1 6.0----30.04- 72.9-----
2024-06-13 06:30 am S 5.1 6.0----30.04- 72.5-----
2024-06-13 06:24 am S 4.1 6.0----30.04- 72.5-----
2024-06-13 06:18 am S 5.1 6.0----30.03- 72.3-----
2024-06-13 06:12 am S 5.1 8.0----30.03- 72.1-----
2024-06-13 06:06 am S 6.0 8.0----30.03- 72.0-----
2024-06-13 06:00 am S 5.1 8.0----30.03+0.02 71.8-----
2024-06-13 05:54 am S 6.0 7.0----30.03- 71.6-----
2024-06-13 05:48 amSSE 5.1 7.0----30.03- 71.6-----
2024-06-13 05:42 amSSE 4.1 7.0----30.02- 71.6-----
2024-06-13 05:36 amSSE 6.0 8.0----30.02- 71.4-----
2024-06-13 05:30 amSSE 5.1 8.0----30.02- 71.4-----
2024-06-13 05:24 amSSE 5.1 6.0----30.01- 71.2-----
2024-06-13 05:18 amSSE 4.1 6.0----30.01- 71.2-----
2024-06-13 05:12 amSSE 5.1 6.0----30.01- 71.1-----
2024-06-13 05:06 amSSE 4.1 6.0----30.01- 71.2-----
2024-06-13 05:00 amSSE 5.1 8.0----30.01-0.01 71.2-----
2024-06-13 04:54 am S 6.0 8.0----30.01- 71.2-----